Weather History for KPSF - October, 2012

Change the Weather History Date:

Monday, October 29, 2012

  Actual Average Record
Temperature  
Mean Temperature 55 °F 44 °F  
Max Temperature 62 °F 54 °F 78 °F (1927)
Min Temperature 48 °F 33 °F 21 °F (1933)
Degree Days  
Heating Degree Days 10 21  
Month to date heating degree days 391 499  
Since 1 July heating degree days 617 791  
Cooling Degree Days 0 0  
Month to date cooling degree days 0 0  
Year to date cooling degree days 465 289  
Growing Degree Days 5 (Base 50)    
Moisture  
Dew Point 52 °F    
Average Humidity 87    
Maximum Humidity 93    
Minimum Humidity 80    
Precipitation  
Precipitation 0.95 in 0.11 in 0.95 in (2012)
Month to date precipitation 4.08 4.52  
Year to date precipitation 31.50 38.26  
Sea Level Pressure  
Sea Level Pressure 29.24 in    
Wind  
Wind Speed 17 mph (ENE)    
Max Wind Speed 35 mph    
Max Gust Speed 58 mph    
Visibility 5 miles    
Events Rain    
T = Trace of Precipitation, MM = Missing Value Source: NWS Daily Summary

Daily Weather History Graph

Daily Weather History Graph

Search for Another Location

Airport or City:

Trip Planner

Search our weather history database for the weather conditions in past years. The results will help you decide how hot, cold, wet, or windy it might be!

Date:

Astronomy

Oct. 29, 2012 Rise Set
Actual Time 7:23 AM EDT 5:49 PM EDT
Civil Twilight 6:54 AM EDT 6:18 PM EDT
Nautical Twilight 6:21 AM EDT 6:51 PM EDT
Astronomical Twilight 5:48 AM EDT 7:24 PM EDT
Moon 5:39 PM EDT (10/29) 7:11 AM EDT (10/29)
Length of Visible Light 11h 24m
Length of Day
10h 26m
Full, 100% of the Moon is Illuminated
Oct 29
Full
Oct 29
Full
Nov 6
Last Quarter
Nov 13
New
Nov 20
First Quarter

Hourly Weather History & Observations

Time (EDT) Temp. Dew Point Humidity Pressure Visibility Wind Dir Wind Speed Gust Speed Precip Events Conditions
12:54 AM 48.9 °F 44.1 °F 83% 29.72 in 10.0 mi NE 10.4 mph 17.3 mph N/A   Overcast
1:54 AM 48.9 °F 44.1 °F 83% 29.70 in 10.0 mi ENE 10.4 mph 21.9 mph N/A   Overcast
2:54 AM 48.9 °F 45.0 °F 86% 29.67 in 8.0 mi NE 12.7 mph 19.6 mph N/A   Overcast
3:54 AM 48.9 °F 45.0 °F 86% 29.64 in 10.0 mi NE 9.2 mph 18.4 mph N/A   Overcast
4:54 AM 48.9 °F 45.0 °F 86% 29.63 in 8.0 mi NE 15.0 mph 21.9 mph N/A   Overcast
5:54 AM 50.0 °F 45.0 °F 83% 29.59 in 10.0 mi NE 18.4 mph 26.5 mph N/A   Overcast
6:54 AM 50.0 °F 45.0 °F 83% 29.57 in 10.0 mi NE 11.5 mph 27.6 mph N/A   Overcast
7:54 AM 50.0 °F 46.0 °F 86% 29.57 in 9.0 mi NE 12.7 mph 23.0 mph N/A   Overcast
8:54 AM 50.0 °F 46.9 °F 89% 29.54 in 7.0 mi NNE 9.2 mph 17.3 mph 0.00 in Rain Light Rain
9:11 AM 50.0 °F 46.4 °F 87% 29.54 in 6.0 mi NNE 10.4 mph 18.4 mph 0.00 in   Overcast
9:54 AM 52.0 °F 48.0 °F 86% 29.49 in 6.0 mi NE 13.8 mph 20.7 mph 0.00 in   Overcast
10:11 AM 53.6 °F 48.2 °F 82% 29.50 in 7.0 mi NE 17.3 mph 25.3 mph 0.00 in Rain Light Rain
10:54 AM 54.0 °F 48.0 °F 80% 29.44 in 10.0 mi ENE 18.4 mph 29.9 mph 0.00 in   Overcast
11:54 AM 53.1 °F 48.9 °F 86% 29.39 in 7.0 mi NE 19.6 mph 26.5 mph 0.00 in   Overcast
12:54 PM 55.0 °F 50.0 °F 83% 29.31 in 5.0 mi NE 15.0 mph 32.2 mph N/A   Haze
1:54 PM 55.9 °F 51.1 °F 84% 29.24 in 4.0 mi NE 20.7 mph 40.3 mph 0.00 in Rain Light Rain
2:34 PM 55.4 °F 51.8 °F 88% 29.23 in 1.5 mi ENE 21.9 mph 36.8 mph 0.04 in Rain Light Rain
2:54 PM 55.0 °F 52.0 °F 89% 29.17 in 1.2 mi NE 21.9 mph 38.0 mph 0.09 in Rain Light Rain
3:29 PM 55.4 °F 51.8 °F 88% 29.15 in 3.0 mi NE 20.7 mph 34.5 mph 0.05 in Rain Light Rain
3:44 PM 55.4 °F 51.8 °F 88% 29.14 in 2.5 mi NE 26.5 mph 41.4 mph 0.06 in Rain Light Rain
3:54 PM 55.9 °F 52.0 °F 87% 29.09 in 2.5 mi NE 24.2 mph 43.7 mph 0.08 in Rain Light Rain
4:02 PM 55.4 °F 51.8 °F 88% 29.12 in 3.0 mi ENE 24.2 mph 42.6 mph 0.00 in Rain Light Rain
4:36 PM 55.4 °F 51.8 °F 88% 29.09 in 2.5 mi ENE 18.4 mph 42.6 mph 0.00 in Rain Light Rain
4:54 PM 55.9 °F 53.1 °F 90% 29.04 in 1.8 mi NE 26.5 mph 46.0 mph 0.01 in Rain Light Rain
5:54 PM 55.9 °F 53.1 °F 90% 29.01 in 2.5 mi ENE 27.6 mph 43.7 mph 0.08 in Rain Light Rain
6:37 PM 57.2 °F 53.6 °F 88% 29.03 in 3.0 mi ENE 17.3 mph 32.2 mph 0.07 in Rain Light Rain
6:47 PM 57.2 °F 55.4 °F 94% 29.04 in 2.5 mi ENE 13.8 mph 34.5 mph 0.09 in Rain Light Rain
6:54 PM 57.9 °F 55.0 °F 90% 29.00 in 3.0 mi ENE 23.0 mph 38.0 mph 0.10 in Rain Light Rain
7:02 PM 57.2 °F 55.4 °F 94% 29.04 in 2.0 mi ENE 13.8 mph 38.0 mph 0.02 in Rain Light Rain
7:21 PM 57.2 °F 55.4 °F 94% 29.03 in 1.8 mi ENE 16.1 mph 29.9 mph 0.09 in Rain Light Rain
7:33 PM 59.0 °F 55.4 °F 88% 29.03 in 3.0 mi East 21.9 mph 34.5 mph 0.12 in Rain Light Rain
7:54 PM 61.0 °F 57.0 °F 87% 28.98 in 6.0 mi ENE 19.6 mph 41.4 mph 0.14 in Rain Light Rain
8:54 PM 61.0 °F 57.0 °F 87% 29.00 in 4.0 mi East 19.6 mph 33.4 mph 0.10 in Rain Light Rain
9:07 PM 60.8 °F 57.2 °F 88% 29.05 in 1.8 mi East 16.1 mph 33.4 mph 0.07 in Rain Heavy Rain
9:16 PM 60.8 °F 57.2 °F 88% 29.06 in 3.0 mi East 21.9 mph 38.0 mph 0.10 in Rain Light Rain
9:37 PM 60.8 °F 57.2 °F 88% 29.06 in 9.0 mi East 18.4 mph 34.5 mph 0.11 in Rain Light Rain
9:54 PM 61.0 °F 57.0 °F 87% 29.01 in 9.0 mi East 13.8 mph 31.1 mph 0.11 in Rain Light Rain
10:11 PM 62.6 °F 55.4 °F 77% 29.06 in 10.0 mi East 19.6 mph 38.0 mph 0.00 in Rain Light Rain
10:27 PM 62.6 °F 55.4 °F 77% 29.07 in 9.0 mi ESE 23.0 mph 41.4 mph 0.00 in Rain Light Rain
10:45 PM 60.8 °F 57.2 °F 88% 29.10 in 1.8 mi ESE 25.3 mph 33.4 mph 0.06 in Rain Rain
10:54 PM 59.0 °F 55.9 °F 90% 29.06 in 1.8 mi ESE 11.5 mph 33.4 mph 0.11 in Rain Rain
11:01 PM 59.0 °F 55.4 °F 88% 29.11 in 3.0 mi ESE 17.3 mph 26.5 mph 0.03 in Rain Light Rain
11:39 PM 57.2 °F 55.4 °F 94% 29.12 in 1.8 mi ESE 17.3 mph 32.2 mph 0.05 in Rain Rain
11:46 PM 57.2 °F 55.4 °F 94% 29.13 in 2.0 mi ESE 13.8 mph 31.1 mph 0.09 in Rain Rain
11:54 PM 59.0 °F 54.0 °F 83% 29.08 in 7.0 mi ESE 16.1 mph 29.9 mph 0.09 in Rain Light Rain